Date,TemperatureHighF,TemperatureAvgF,TemperatureLowF,DewpointHighF,DewpointAvgF,DewpointLowF,HumidityHigh,HumidityAvg,HumidityLow,PressureMaxIn,PressureMinIn,WindSpeedMaxMPH,WindSpeedAvgMPH,GustSpeedMaxMPH,PrecipitationSumIn
2013-6-1,89,84,82,77,76,76,84,78,68,29.96,29.84,17,9,25,0.00
2013-6-2,88,84,81,77,76,75,85,77,67,29.94,29.84,18,8,25,0.00
2013-6-3,89,84,82,79,77,76,84,79,69,29.94,29.82,22,9,26,0.00
2013-6-4,87,84,81,79,77,76,87,80,70,29.94,29.82,19,8,25,0.00
2013-6-5,88,84,81,78,76,75,84,78,68,29.93,29.78,23,9,27,0.00
2013-6-6,88,84,82,78,77,76,85,80,70,29.94,29.82,17,8,25,0.00
2013-6-7,88,83,81,77,76,75,85,78,67,29.94,29.83,17,7,24,0.00
2013-6-8,88,84,81,77,76,74,83,77,68,29.94,29.82,19,8,28,0.00
2013-6-9,88,84,81,78,76,75,83,77,71,29.94,29.83,17,8,23,0.00
2013-6-10,88,84,81,78,77,76,85,80,72,29.92,29.83,17,8,23,0.00
2013-6-11,88,84,81,78,77,76,86,79,72,29.94,29.84,21,9,26,0.00
2013-6-12,88,84,82,79,77,75,83,78,68,29.96,29.87,19,9,23,0.00
2013-6-13,88,84,80,79,77,76,91,80,69,29.95,29.82,17,7,23,0.08
2013-6-14,88,84,80,79,77,76,88,81,70,29.88,29.79,17,8,25,0.00
2013-6-15,88,84,81,79,78,77,87,82,73,29.92,29.82,20,8,23,0.00
2013-6-16,88,84,82,78,77,75,88,79,70,29.92,29.82,18,8,24,0.00
2013-6-17,88,84,82,78,77,76,84,77,69,29.92,29.84,18,10,26,0.01
2013-6-18,88,84,80,78,77,75,87,79,69,29.92,29.82,19,9,27,0.00
2013-6-19,88,84,81,77,76,74,84,77,68,29.91,29.77,17,8,25,0.00
2013-6-20,88,84,82,78,76,75,85,78,67,29.93,29.82,21,10,28,0.00
2013-6-21,88,84,81,77,76,74,83,77,67,29.95,29.86,19,9,25,0.00
2013-6-22,87,83,80,76,74,73,82,76,64,29.94,29.82,19,7,22,0.00
2013-6-23,88,84,81,77,75,74,83,77,68,29.94,29.84,17,8,24,0.00
2013-6-24,89,84,81,78,76,74,85,78,69,29.95,29.86,14,7,21,0.00
2013-6-25,89,84,81,77,76,75,85,78,67,29.95,29.85,17,7,19,0.00
2013-6-26,88,84,81,78,77,75,85,79,69,29.93,29.82,17,7,22,0.00
2013-6-27,88,84,81,77,76,75,87,78,68,29.92,29.80,18,10,26,0.01
2013-6-28,88,84,82,77,76,75,83,77,68,29.91,29.82,23,10,24,0.00
2013-6-29,88,84,81,77,76,74,84,77,68,29.93,29.80,15,6,19,0.00
2013-6-30,88,83,79,78,77,76,94,82,71,29.91,29.79,15,6,21,0.01